When you browse on this site, cookies collect data to enhance your experience and personalize the content and advertising you see.
Visit our Privacy Policy to learn more. By continuing to use the site, you agree to this use of cookies and data.
  • în România
  • Lista ţărilor
  • Pe 7 zile
  • Temperatura apei
  • Hartă satelitară
  • Meteo pe hartă
  • Widget-uri
  • user-avatar
    Intrare

    Meteo pe oră la Saint-Fons

    Astăzi, 25 Iunie, Marţi

    Timp Temperatura Precipitaţii Vânt Presiune Umiditate
    00:00 +23°C° 0 mm 2 m/s 746 mmHg 61%
    01:00 +21°C° 0 mm 2 m/s 746 mmHg 62%
    02:00 +21°C° 0 mm 2 m/s 745 mmHg 63%
    03:00 +20°C° 0 mm 2 m/s 745 mmHg 64%
    04:00 +21°C° 0 mm 2 m/s 746 mmHg 65%
    05:00 +21°C° 0 mm 2 m/s 746 mmHg 65%
    06:00 +23°C° 0 mm 2 m/s 746 mmHg 67%
    07:00 +25°C° 0 mm 2 m/s 746 mmHg 61%
    08:00 +27°C° 0 mm 3 m/s 746 mmHg 55%
    09:00 +29°C° 0 mm 3 m/s 746 mmHg 50%
    10:00 +31°C° 0 mm 3 m/s 746 mmHg 47%
    11:00 +33°C° 0 mm 4 m/s 746 mmHg 44%
    12:00 +35°C° 0 mm 4 m/s 746 mmHg 41%
    13:00 +35°C° 0 mm 4 m/s 746 mmHg 41%
    14:00 +36°C° 0 mm 4 m/s 746 mmHg 41%
    15:00 +36°C° 0 mm 4 m/s 746 mmHg 41%
    16:00 +35°C° 0 mm 3 m/s 747 mmHg 44%
    17:00 +34°C° 0 mm 2 m/s 747 mmHg 48%
    18:00 +32°C° 0 mm 2 m/s 747 mmHg 52%
    19:00 +31°C° 0 mm 2 m/s 748 mmHg 54%
    20:00 +29°C° 0 mm 2 m/s 748 mmHg 55%
    21:00 +27°C° 0 mm 2 m/s 748 mmHg 57%
    22:00 +26°C° 0 mm 2 m/s 748 mmHg 59%
    23:00 +25°C° 0 mm 2 m/s 749 mmHg 60%

    Mâine, 26 Iunie, Miercuri

    Timp Temperatura Precipitaţii Vânt Presiune Umiditate
    00:00 +24°C° 0 mm 2 m/s 749 mmHg 62%
    01:00 +23°C° 0 mm 2 m/s 748 mmHg 64%
    02:00 +23°C° 0 mm 2 m/s 748 mmHg 66%
    03:00 +21°C° 0 mm 2 m/s 748 mmHg 68%
    04:00 +23°C° 0 mm 2 m/s 748 mmHg 68%
    05:00 +23°C° 0 mm 2 m/s 748 mmHg 69%
    06:00 +24°C° 0 mm 2 m/s 748 mmHg 69%
    07:00 +26°C° 0 mm 2 m/s 748 mmHg 63%
    08:00 +29°C° 0 mm 3 m/s 748 mmHg 57%
    09:00 +31°C° 0 mm 3 m/s 748 mmHg 51%
    10:00 +33°C° 0 mm 3 m/s 748 mmHg 47%
    11:00 +35°C° 0 mm 4 m/s 748 mmHg 43%
    12:00 +36°C° 0 mm 4 m/s 748 mmHg 39%
    13:00 +37°C° 0 mm 4 m/s 748 mmHg 39%
    14:00 +37°C° 0 mm 3 m/s 748 mmHg 40%
    15:00 +37°C° 0 mm 3 m/s 748 mmHg 40%
    16:00 +36°C° 0 mm 3 m/s 748 mmHg 45%
    17:00 +35°C° 0 mm 3 m/s 748 mmHg 50%
    18:00 +34°C° 0 mm 2 m/s 748 mmHg 55%
    19:00 +31°C° 0 mm 2 m/s 748 mmHg 56%
    20:00 +29°C° 0 mm 2 m/s 748 mmHg 57%
    21:00 +28°C° 0 mm 1 m/s 749 mmHg 58%
    22:00 +27°C° 0 mm 1 m/s 749 mmHg 60%
    23:00 +26°C° 0 mm 1 m/s 749 mmHg 62%

    Poimâine, 27 Iunie, Joi

    Timp Temperatura Precipitaţii Vânt Presiune Umiditate
    00:00 +25°C° 0 mm 1 m/s 749 mmHg 63%
    01:00 +25°C° 0 mm 1 m/s 748 mmHg 65%
    02:00 +24°C° 0 mm 1 m/s 748 mmHg 66%
    03:00 +23°C° 0 mm 1 m/s 748 mmHg 67%
    04:00 +24°C° 0 mm 1 m/s 748 mmHg 67%
    05:00 +25°C° 0 mm 1 m/s 748 mmHg 66%
    06:00 +26°C° 0 mm 1 m/s 748 mmHg 65%
    07:00 +28°C° 0 mm 1 m/s 748 mmHg 60%
    08:00 +30°C° 0 mm 1 m/s 748 mmHg 55%
    09:00 +32°C° 0 mm 1 m/s 748 mmHg 49%
    10:00 +33°C° 0 mm 1 m/s 748 mmHg 47%
    11:00 +35°C° 0 mm 1 m/s 747 mmHg 44%
    12:00 +37°C° 0 mm 1 m/s 747 mmHg 41%
    13:00 +37°C° 0 mm 1 m/s 747 mmHg 40%
    14:00 +39°C° 0 mm 1 m/s 747 mmHg 39%
    15:00 +39°C° 0 mm 1 m/s 746 mmHg 38%
    16:00 +37°C° 0 mm 1 m/s 746 mmHg 44%
    17:00 +37°C° 0 mm 2 m/s 746 mmHg 50%
    18:00 +36°C° 0 mm 2 m/s 746 mmHg 56%
    19:00 +34°C° 0 mm 2 m/s 746 mmHg 64%
    20:00 +31°C° 0 mm 2 m/s 747 mmHg 72%
    21:00 +29°C° 0 mm 2 m/s 747 mmHg 81%
    22:00 +28°C° 0 mm 2 m/s 747 mmHg 83%
    23:00 +27°C° 0 mm 2 m/s 747 mmHg 86%

    28 Iunie, Vineri

    Timp Temperatura Precipitaţii Vânt Presiune Umiditate
    00:00 +27°C° 0 mm 1 m/s 747 mmHg 88%
    01:00 +26°C° 0 mm 1 m/s 746 mmHg 89%
    02:00 +25°C° 0 mm 1 m/s 746 mmHg 90%
    03:00 +25°C° 0 mm 1 m/s 746 mmHg 90%
    04:00 +25°C° 0 mm 1 m/s 746 mmHg 88%
    05:00 +25°C° 0 mm 1 m/s 746 mmHg 85%
    06:00 +26°C° 0 mm 1 m/s 745 mmHg 83%
    07:00 +27°C° 0 mm 1 m/s 745 mmHg 77%
    08:00 +29°C° 0 mm 2 m/s 745 mmHg 71%
    09:00 +30°C° 0 mm 2 m/s 745 mmHg 66%
    10:00 +32°C° 0 mm 2 m/s 745 mmHg 61%
    11:00 +34°C° 0 mm 3 m/s 745 mmHg 56%
    12:00 +36°C° 0 mm 3 m/s 744 mmHg 52%
    13:00 +36°C° 0 mm 3 m/s 744 mmHg 49%
    14:00 +36°C° 0 mm 4 m/s 744 mmHg 47%
    15:00 +37°C° 0 mm 4 m/s 744 mmHg 45%
    16:00 +35°C° 0 mm 4 m/s 744 mmHg 49%
    17:00 +34°C° 0 mm 4 m/s 744 mmHg 54%
    18:00 +31°C° 0 mm 3 m/s 744 mmHg 58%
    19:00 +29°C° 0 mm 3 m/s 744 mmHg 63%
    20:00 +27°C° 0 mm 3 m/s 744 mmHg 68%
    21:00 +25°C° 0 mm 2 m/s 745 mmHg 73%
    22:00 +25°C° 0 mm 2 m/s 745 mmHg 74%
    23:00 +24°C° 0 mm 2 m/s 744 mmHg 76%

    29 Iunie, Sâmbătă

    Timp Temperatura Precipitaţii Vânt Presiune Umiditate
    00:00 +23°C° 0 mm 1 m/s 744 mmHg 77%
    01:00 +22°C° 0 mm 1 m/s 744 mmHg 78%
    02:00 +22°C° 0 mm 1 m/s 744 mmHg 80%
    03:00 +21°C° 0 mm 1 m/s 744 mmHg 82%
    04:00 +22°C° 0 mm 1 m/s 744 mmHg 79%
    05:00 +23°C° 0 mm 1 m/s 744 mmHg 77%
    06:00 +21°C° 0 mm 0 m/s 744 mmHg 75%
    07:00 +23°C° 0 mm 0 m/s 744 mmHg 68%
    08:00 +26°C° 0 mm 0 m/s 744 mmHg 61%
    09:00 +28°C° 0 mm 0 m/s 744 mmHg 54%
    10:00 +31°C° 0 mm 1 m/s 744 mmHg 49%
    11:00 +33°C° 0 mm 1 m/s 743 mmHg 44%
    12:00 +35°C° 0 mm 1 m/s 743 mmHg 40%
    13:00 +35°C° 0 mm 1 m/s 743 mmHg 38%
    14:00 +36°C° 0 mm 1 m/s 743 mmHg 37%
    15:00 +36°C° 0 mm 1 m/s 743 mmHg 36%
    16:00 +35°C° 0 mm 1 m/s 743 mmHg 40%
    17:00 +34°C° 0 mm 1 m/s 743 mmHg 45%
    18:00 +31°C° 0 mm 0 m/s 743 mmHg 50%
    19:00 +32°C° 0 mm 1 m/s 744 mmHg 53%
    20:00 +30°C° 0 mm 1 m/s 744 mmHg 56%
    21:00 +28°C° 0 mm 2 m/s 744 mmHg 59%
    22:00 +27°C° 0 mm 2 m/s 744 mmHg 62%
    23:00 +27°C° 0 mm 2 m/s 744 mmHg 65%

    30 Iunie, Duminică

    Timp Temperatura Precipitaţii Vânt Presiune Umiditate
    00:00 +26°C° 0 mm 2 m/s 745 mmHg 68%
    01:00 +25°C° 0 mm 2 m/s 744 mmHg 70%
    02:00 +25°C° 0 mm 2 m/s 744 mmHg 72%
    03:00 +24°C° 0 mm 2 m/s 744 mmHg 74%
    04:00 +25°C° 0 mm 1 m/s 745 mmHg 74%
    05:00 +25°C° 0 mm 1 m/s 745 mmHg 73%
    06:00 +26°C° 0 mm 1 m/s 745 mmHg 72%
    07:00 +28°C° 0 mm 1 m/s 745 mmHg 67%
    08:00 +30°C° 0 mm 1 m/s 745 mmHg 61%
    09:00 +31°C° 0 mm 1 m/s 745 mmHg 55%
    10:00 +33°C° 0 mm 1 m/s 745 mmHg 52%
    11:00 +34°C° 0 mm 1 m/s 745 mmHg 49%
    12:00 +36°C° 0 mm 1 m/s 745 mmHg 45%
    13:00 +36°C° 0 mm 1 m/s 745 mmHg 44%
    14:00 +37°C° 0 mm 1 m/s 744 mmHg 42%
    15:00 +37°C° 0 mm 1 m/s 744 mmHg 41%
    16:00 +36°C° 0 mm 1 m/s 744 mmHg 45%
    17:00 +36°C° 0 mm 1 m/s 744 mmHg 49%
    18:00 +35°C° 0 mm 1 m/s 744 mmHg 54%
    19:00 +33°C° 0 mm 1 m/s 745 mmHg 57%
    20:00 +31°C° 0 mm 1 m/s 745 mmHg 60%
    21:00 +30°C° 0 mm 1 m/s 745 mmHg 63%
    22:00 +29°C° 0 mm 1 m/s 745 mmHg 67%
    23:00 +28°C° 0 mm 1 m/s 745 mmHg 71%
    Arată mai mult